Aérodrome :
LOGIN :

S'inscrire | Disclaimer

   EN    FR    IT 

 










Légende :    VFR   VFR Marginal   IFR   IFR Intensif   IFR Très Intensif
Visi : 
Plafond : 
>= 8 km
>= 3000ft
5 à 8 km
1000 à 3000 ft
1500m à 5 km
500 à 1000 ft
800 à 1500m
200 à 500 ft
< 800m
< 200 ft
Symboles :   Orages  Brouillard  Fortes neiges  Fortes précipitations  Vent > 20 kt
SIGMETs :   Divers  Orages  Givrage  Turbulence  Onde Orograph.  Cendres Volcan.







- Altitude de l'aérodrome : 49 ft
- Code IATA : SEN
- Voir les cartes d'approche


EGMC - Southend

DERNIER METAR :
  • 270620Z 20004KT 7000 -RA FEW010 BKN030 08/06 Q1010

METARs EXPIRÉS :
  • 270550Z 17005KT 8000 -RA SCT009 BKN036 09/07 Q1011
  • 270520Z 20004KT 9999 FEW020 09/06 Q1011
  • 270450Z 18002KT CAVOK 08/06 Q1011
  • 270350Z 20004KT CAVOK 08/05 Q1011

TAF TAF EGMC
Valide du 27 à 06h jusqu'au 27 à 15h UTC


270502Z 2706/2715 17004KT 9999 SCT030
BECMG 2706/2709 10012KT
TEMPO 2706/2715 6000 RA
Pas de NOTAMs connus pour ce terrain.



MET'MAP, la Météo Aéronautique d'un coup d'oeil ! - Copyright ORBIFLY Décembre 2007 - Disclaimer

ORBIFLY MET'MAP TEAM :

Programmation & Développement : Alexandra Zaïnal
Conception & Développement : Baudouin d'Aumeries
Co-Programmation & Développement : Marc-Olivier Méhu
Soutien technique & logistique : Manuel Goepfert

Contact : metmap@orbifly.com




SOURCES & CREDITS :

   NOAA